Regional Weather Roundup
Issued by NWS Cleveland, OH

Home | Current Version | Previous Version | Graphics & Text | Print | Product List | Glossary On
Versions: 1 2 3 4 5 6 7 8 9 10 11 12 13 14 15 16 17 18 19 20 21 22 23 24 25 26 27 28 29 30 31 32 33 34 35 36 37 38 39 40 41 42 43 44 45 46 47 48 49 50
000
ASUS41 KCLE 011400
RWRCLE
OHIO REGIONAL WEATHER ROUNDUP
NATIONAL WEATHER SERVICE WILMINGTON, OH
1000 AM EDT WED OCT 01 2014

NOTE: "FAIR" INDICATES FEW OR NO CLOUDS BELOW 12,000 FEET WITH NO
SIGNIFICANT WEATHER AND/OR OBSTRUCTIONS TO VISIBILITY.

OHZ001>008-015>018-024>027-034-035-043-044-011500-
   NORTHWEST OHIO

CITY           SKY/WX    TMP DP  RH WIND       PRES   REMARKS
DEFIANCE       CLOUDY    54  49  83 E3        30.07R
FINDLAY        CLOUDY    53  50  89 CALM      30.06R FOG
TOLEDO EXPRESS MOSUNNY   53  50  89 CALM      30.07R
TOLEDO METCALF CLOUDY    58  53  84 N3        30.07R
LIMA           CLOUDY    53  51  93 E3        30.06S FOG
$$

OHZ009>014-019>023-028>033-038-089-011500-
   NORTHEAST OHIO

CITY           SKY/WX    TMP DP  RH WIND       PRES   REMARKS
CLE-HOPKINS    CLOUDY    61  56  83 W3        30.06R
CLE-LAKEFRONT  MOSUNNY   63  57  81 N7        30.04R
CUY CO. ARPT   PTSUNNY   63  61  94 N6        30.04R
LORAIN-ELYRIA  CLOUDY    62  56  80 CALM      30.06R
ASHTABULA      FOG       57  57 100 CALM      30.05R VSB<1/4
AKRON-CANTON   CLOUDY    59  54  83 CALM      30.04R
WOOSTER        CLOUDY    57  54  88 CALM      30.05R
MANSFIELD      CLOUDY    55  54  96 NE6       30.05R
YOUNGSTOWN     FOG       56  56 100 NE6       30.04R VSB 1/8
$$

OHZ042-051>053-060>062-070>072-077>081-011500-
  SOUTHWEST OHIO

CITY           SKY/WX    TMP DP  RH WIND       PRES   REMARKS
CINC-COVINGTON SUNNY     58  51  78 NE5       30.03R
CINC-LUNKEN    CLOUDY    51  51 100 NE6       30.06R FOG
HAMILTON       CLOUDY    53  51  93 CALM      30.06R FOG
DAYTON         NOT AVBL
WRIGHT-PAT AFB NOT AVBL
DAYTON GENERAL FOG       51  50  96 E5        30.05R VSB 1/2
WILMINGTON     FOG       51  50  96 NE5       30.05R VSB 1/4
$$

OHZ036-037-039>041-045>050-054>059-063>069-073>076-082>088-011500-
  CENTRAL AND SOUTHEAST OHIO

CITY           SKY/WX    TMP DP  RH WIND       PRES   REMARKS
COLUMBUS       CLOUDY    56  52  86 CALM      30.04R
OSU AIRPORT    CLOUDY    52  51  97 NW5       30.06R FOG
BOLTON FIELD   CLOUDY    54  54 100 CALM      30.06R FOG
RICKENBACK AFB NOT AVBL
NEWARK         CLOUDY    56  54  93 CALM      30.04R FOG
MARION         CLOUDY    53  51  93 CALM      30.06R
LANCASTER      CLOUDY    56  53  90 CALM      30.05R FOG
ZANESVILLE     CLOUDY    57  54  89 N5        30.04R
NEW PHILLY     CLOUDY    57  55  93 CALM      30.05R FOG
$$



USA.gov is the U.S. government's official web portal to all federal, state and local government web resources and services.